Regional Weather Roundup
Issued by NWS

Home | Current Version | Previous Version | Text Only | Print | Product List | Glossary On
Versions: 1 2 3 4 5 6 7 8 9 10 11 12 13 14 15 16 17 18 19 20 21 22 23 24 25 26 27 28 29 30 31 32 33 34 35 36 37 38 39 40 41 42 43 44 45 46 47 48 49 50
000
ASUS43 KLSX 041459
RWRMO

WEATHER SUMMARY FOR MISSOURI
NATIONAL WEATHER SERVICE SPRINGFIELD MO
1000 AM CDT MON MAY 04 2015

NOTE: "FAIR" INDICATES FEW OR NO CLOUDS BELOW 12,000 FEET WITH NO
       SIGNIFICANT WEATHER AND/OR OBSTRUCTIONS TO VISIBILITY.
       CURRENT SKY AND/OR WEATHER CONDITIONS ARE NOT AVAILABLE FOR
       CHILLICOTHE AND FARMINGTON.

MOZ001>031-035>038-043-044-053-054-041600-
...NORTHERN AND WESTERN MISSOURI...

CITY           SKY/WX    TMP DP  RH WIND       PRES   REMARKS
KANSAS CTY INT LGT RAIN  65  60  84 CALM      30.05R
KANSAS C DTWN  CLOUDY    67  60  78 CALM      30.04R
LEE`S SUMMIT   CLOUDY    66  58  75 S8        30.04R
ST JOSEPH      CLOUDY    73  58  59 NE9       30.01F
CHILLICOTHE      N/A     73  61  65 W5        30.05S
KIRKSVILLE     MOSUNNY   70  61  73 W3        30.06S

$$
MOZ066>068-077>081-088>096-101>105-041600-
...SOUTHWEST MISSOURI...

CITY           SKY/WX    TMP DP  RH WIND       PRES   REMARKS
SPRINGFIELD    PTSUNNY   73  57  57 S12       30.12R
JOPLIN         PTSUNNY   73  59  61 S14G24    30.09R

$$
MOZ032>034-039>042-045>050-055>058-069>072-041600-
...CENTRAL MISSOURI...

CITY           SKY/WX    TMP DP  RH WIND       PRES   REMARKS
COLUMBIA       CLOUDY    69  60  73 S7        30.08R
JEFFERSON CITY PTSUNNY   72  57  59 S8        30.08S
ROLLA          MOSUNNY   74  59  59 S12       30.10S
SEDALIA        PTSUNNY   70  61  73 SW12      30.08R
OSAGE BEACH    MOSUNNY   75  55  50 SW13      30.10S

$$
MOZ051-052-059>065-041600-
...EAST CENTRAL MISSOURI...

CITY           SKY/WX    TMP DP  RH WIND       PRES   REMARKS
ST LOUIS INTL  CLOUDY    75  60  59 S8        30.11S
SPIRIT OF STL  CLOUDY    73  60  63 S8        30.09F
ST CHARLES     CLOUDY    74  59  59 S12       30.08F

$$
MOZ072>076-082>087-097>100-106>115-041600-
...SOUTH CENTRAL AND SOUTHEAST MISSOURI...

CITY           SKY/WX    TMP DP  RH WIND       PRES   REMARKS
CAPE GIRARDEAU PTSUNNY   74  59  59 S8        30.17S
FARMINGTON     PTSUNNY   70  57  64 SW6       30.20R
POPLAR BLUFF   MOSUNNY   76  59  55 SW10      30.16R
WEST PLAINS    MOSUNNY   72  57  59 SW8       30.17R

$$


USA.gov is the U.S. government's official web portal to all federal, state and local government web resources and services.